Year,Month,Day,Hour,Minute,Value (Times are PST for temperature in C)
2011,04,20,00,00,5.10
2011,04,20,00,01,5.10
2011,04,20,00,02,5.20
2011,04,20,00,03,5.20
2011,04,20,00,04,5.10
2011,04,20,00,05,5.10
2011,04,20,00,06,5.10
2011,04,20,00,07,5.10
2011,04,20,00,08,5.10
2011,04,20,00,09,5.10
2011,04,20,00,10,5.10
2011,04,20,00,11,5.10
2011,04,20,00,12,5.10
2011,04,20,00,13,5.10
2011,04,20,00,14,5.10
2011,04,20,00,15,5.10
2011,04,20,00,16,5.10
2011,04,20,00,17,5.10
2011,04,20,00,18,5.00
2011,04,20,00,19,4.90
2011,04,20,00,20,4.90
2011,04,20,00,21,4.90
2011,04,20,00,22,4.90
2011,04,20,00,23,4.90
2011,04,20,00,24,4.90
2011,04,20,00,25,4.90
2011,04,20,00,26,4.90
2011,04,20,00,27,4.90
2011,04,20,00,28,4.90
2011,04,20,00,29,4.90
2011,04,20,00,30,4.90
2011,04,20,00,31,4.90
2011,04,20,00,32,4.90
2011,04,20,00,33,4.90
2011,04,20,00,34,4.90
2011,04,20,00,35,4.90
2011,04,20,00,36,4.90
2011,04,20,00,37,4.90
2011,04,20,00,38,4.90
2011,04,20,00,39,4.90
2011,04,20,00,40,4.80
2011,04,20,00,41,4.80
2011,04,20,00,42,4.80
2011,04,20,00,43,4.80
2011,04,20,00,44,4.80
2011,04,20,00,45,4.90
2011,04,20,00,46,4.90
2011,04,20,00,47,4.90
2011,04,20,00,48,4.90
2011,04,20,00,49,4.90
2011,04,20,00,50,4.80
2011,04,20,00,51,4.80
2011,04,20,00,52,4.80
2011,04,20,00,53,4.80
2011,04,20,00,54,4.80
2011,04,20,00,55,4.80
2011,04,20,00,56,4.80
2011,04,20,00,57,4.80
2011,04,20,00,58,4.80
2011,04,20,00,59,4.80
2011,04,20,01,00,4.80
2011,04,20,01,01,4.80
2011,04,20,01,02,4.70
2011,04,20,01,03,4.70
2011,04,20,01,04,4.70
2011,04,20,01,05,4.60
2011,04,20,01,06,4.60
2011,04,20,01,07,4.60
2011,04,20,01,08,4.60
2011,04,20,01,09,4.60
2011,04,20,01,10,4.60
2011,04,20,01,11,4.60
2011,04,20,01,12,4.60
2011,04,20,01,13,4.60
2011,04,20,01,14,4.60
2011,04,20,01,15,4.60
2011,04,20,01,16,4.50
2011,04,20,01,17,4.50
2011,04,20,01,18,4.50
2011,04,20,01,19,4.50
2011,04,20,01,20,4.40
2011,04,20,01,21,4.40
2011,04,20,01,22,4.40
2011,04,20,01,23,4.40
2011,04,20,01,24,4.40
2011,04,20,01,25,4.40
2011,04,20,01,26,4.30
2011,04,20,01,27,4.30
2011,04,20,01,28,4.30
2011,04,20,01,29,4.30
2011,04,20,01,30,4.20
2011,04,20,01,31,4.20
2011,04,20,01,32,4.20
2011,04,20,01,33,4.20
2011,04,20,01,34,4.20
2011,04,20,01,35,4.20
2011,04,20,01,36,4.20
2011,04,20,01,37,4.20
2011,04,20,01,38,4.20
2011,04,20,01,39,4.10
2011,04,20,01,40,4.10
2011,04,20,01,41,4.10
2011,04,20,01,42,4.10
2011,04,20,01,43,4.10
2011,04,20,01,44,4.00
2011,04,20,01,45,4.00
2011,04,20,01,46,4.00
2011,04,20,01,47,4.00
2011,04,20,01,48,3.90
2011,04,20,01,49,3.90
2011,04,20,01,50,3.80
2011,04,20,01,51,3.80
2011,04,20,01,52,3.80
2011,04,20,01,53,3.80
2011,04,20,01,54,3.80
2011,04,20,01,55,3.80
2011,04,20,01,56,3.80
2011,04,20,01,57,3.80
2011,04,20,01,58,3.80
2011,04,20,01,59,3.80
2011,04,20,02,00,3.80
2011,04,20,02,01,3.80
2011,04,20,02,02,3.80
2011,04,20,02,03,3.80
2011,04,20,02,04,3.80
2011,04,20,02,05,3.80
2011,04,20,02,06,3.80
2011,04,20,02,07,3.70
2011,04,20,02,08,3.70
2011,04,20,02,09,3.70
2011,04,20,02,10,3.70
2011,04,20,02,11,3.70
2011,04,20,02,12,3.70
2011,04,20,02,13,3.70
2011,04,20,02,14,3.70
2011,04,20,02,15,3.60
2011,04,20,02,16,3.60
2011,04,20,02,17,3.60
2011,04,20,02,18,3.60
2011,04,20,02,19,3.50
2011,04,20,02,20,3.50
2011,04,20,02,21,3.40
2011,04,20,02,22,3.40
2011,04,20,02,23,3.40
2011,04,20,02,24,3.30
2011,04,20,02,25,3.30
2011,04,20,02,26,3.30
2011,04,20,02,27,3.30
2011,04,20,02,28,3.30
2011,04,20,02,29,3.30
2011,04,20,02,30,3.30
2011,04,20,02,31,3.30
2011,04,20,02,32,3.30
2011,04,20,02,33,3.30
2011,04,20,02,34,3.30
2011,04,20,02,35,3.30
2011,04,20,02,36,3.30
2011,04,20,02,37,3.30
2011,04,20,02,38,3.30
2011,04,20,02,39,3.30
2011,04,20,02,40,3.30
2011,04,20,02,41,3.30
2011,04,20,02,42,3.30
2011,04,20,02,43,3.30
2011,04,20,02,44,3.30
2011,04,20,02,45,3.30
2011,04,20,02,46,3.20
2011,04,20,02,47,3.20
2011,04,20,02,48,3.20
2011,04,20,02,49,3.20
2011,04,20,02,50,3.10
2011,04,20,02,51,3.10
2011,04,20,02,52,2.90
2011,04,20,02,53,2.90
2011,04,20,02,54,2.90
2011,04,20,02,55,2.80
2011,04,20,02,56,2.80
2011,04,20,02,57,2.80
2011,04,20,02,58,2.70
2011,04,20,02,59,2.70
2011,04,20,03,00,2.70
2011,04,20,03,01,2.60
2011,04,20,03,02,2.50
2011,04,20,03,03,2.50
2011,04,20,03,04,2.50
2011,04,20,03,05,2.40
2011,04,20,03,06,2.40
2011,04,20,03,07,2.40
2011,04,20,03,08,2.30
2011,04,20,03,09,2.30
2011,04,20,03,10,2.30
2011,04,20,03,11,2.20
2011,04,20,03,12,2.20
2011,04,20,03,13,2.20
2011,04,20,03,14,2.10
2011,04,20,03,15,2.10
2011,04,20,03,16,2.10
2011,04,20,03,17,2.00
2011,04,20,03,18,2.00
2011,04,20,03,19,2.00
2011,04,20,03,20,1.90
2011,04,20,03,21,1.90
2011,04,20,03,22,1.90
2011,04,20,03,23,1.90
2011,04,20,03,24,1.90
2011,04,20,03,25,1.80
2011,04,20,03,26,1.80
2011,04,20,03,27,1.80
2011,04,20,03,28,1.80
2011,04,20,03,29,1.90
2011,04,20,03,30,2.00
2011,04,20,03,31,2.00
2011,04,20,03,32,2.00
2011,04,20,03,33,2.10
2011,04,20,03,34,2.10
2011,04,20,03,35,2.20
2011,04,20,03,36,2.20
2011,04,20,03,37,2.20
2011,04,20,03,38,2.20
2011,04,20,03,39,2.30
2011,04,20,03,40,2.30
2011,04,20,03,41,2.40
2011,04,20,03,42,2.40
2011,04,20,03,43,2.50
2011,04,20,03,44,2.50
2011,04,20,03,45,2.50
2011,04,20,03,46,2.50
2011,04,20,03,47,2.50
2011,04,20,03,48,2.50
2011,04,20,03,49,2.50
2011,04,20,03,50,2.50
2011,04,20,03,51,2.50
2011,04,20,03,52,2.50
2011,04,20,03,53,2.50
2011,04,20,03,54,2.60
2011,04,20,03,55,2.60
2011,04,20,03,56,2.60
2011,04,20,03,57,2.60
2011,04,20,03,58,2.60
2011,04,20,03,59,2.70
2011,04,20,04,00,2.70
2011,04,20,04,01,2.70
2011,04,20,04,02,2.70
2011,04,20,04,03,2.70
2011,04,20,04,04,2.70
2011,04,20,04,05,2.70
2011,04,20,04,06,2.70
2011,04,20,04,07,2.70
2011,04,20,04,08,2.70
2011,04,20,04,09,2.70
2011,04,20,04,10,2.70
2011,04,20,04,11,2.60
2011,04,20,04,12,2.60
2011,04,20,04,13,2.60
2011,04,20,04,14,2.50
2011,04,20,04,15,2.50
2011,04,20,04,16,2.50
2011,04,20,04,17,2.40
2011,04,20,04,18,2.40
2011,04,20,04,19,2.40
2011,04,20,04,20,2.30
2011,04,20,04,21,2.30
2011,04,20,04,22,2.30
2011,04,20,04,23,2.30
2011,04,20,04,24,2.30
2011,04,20,04,25,2.30
2011,04,20,04,26,2.30
2011,04,20,04,27,2.30
2011,04,20,04,28,2.30
2011,04,20,04,29,2.30
2011,04,20,04,30,2.30
2011,04,20,04,31,2.30
2011,04,20,04,32,2.30
2011,04,20,04,33,2.30
2011,04,20,04,34,2.30
2011,04,20,04,35,2.30
2011,04,20,04,36,2.40
2011,04,20,04,37,2.40
2011,04,20,04,38,2.50
2011,04,20,04,39,2.50
2011,04,20,04,40,2.60
2011,04,20,04,41,2.60
2011,04,20,04,42,2.60
2011,04,20,04,43,2.60
2011,04,20,04,44,2.60
2011,04,20,04,45,2.60
2011,04,20,04,46,2.60
2011,04,20,04,47,2.60
2011,04,20,04,48,2.50
2011,04,20,04,49,2.50
2011,04,20,04,50,2.50
2011,04,20,04,51,2.40
2011,04,20,04,52,2.40
2011,04,20,04,53,2.40
2011,04,20,04,54,2.30
2011,04,20,04,55,2.30
2011,04,20,04,56,2.30
2011,04,20,04,57,2.30
2011,04,20,04,58,2.20
2011,04,20,04,59,2.20
2011,04,20,05,00,2.20
2011,04,20,05,01,2.20
2011,04,20,05,02,2.10
2011,04,20,05,03,2.00
2011,04,20,05,04,1.90
2011,04,20,05,05,1.80
2011,04,20,05,06,1.80
2011,04,20,05,07,1.70
2011,04,20,05,08,1.70
2011,04,20,05,09,1.70
2011,04,20,05,10,1.70
2011,04,20,05,11,1.60
2011,04,20,05,12,1.60
2011,04,20,05,13,1.50
2011,04,20,05,14,1.40
2011,04,20,05,15,1.30
2011,04,20,05,16,1.30
2011,04,20,05,17,1.20
2011,04,20,05,18,1.20
2011,04,20,05,19,1.10
2011,04,20,05,20,1.10
2011,04,20,05,21,1.00
2011,04,20,05,22,1.00
2011,04,20,05,23,1.00
2011,04,20,05,24,0.90
2011,04,20,05,25,0.90
2011,04,20,05,26,0.80
2011,04,20,05,27,0.80
2011,04,20,05,28,0.80
2011,04,20,05,29,0.80
2011,04,20,05,30,0.80
2011,04,20,05,31,0.70
2011,04,20,05,32,0.70
2011,04,20,05,33,0.70
2011,04,20,05,34,0.60
2011,04,20,05,35,0.60
2011,04,20,05,36,0.60
2011,04,20,05,37,0.60
2011,04,20,05,38,0.60
2011,04,20,05,39,0.60
2011,04,20,05,40,0.60
2011,04,20,05,41,0.60
2011,04,20,05,42,0.60
2011,04,20,05,43,0.60
2011,04,20,05,44,0.60
2011,04,20,05,45,0.60
2011,04,20,05,46,0.60
2011,04,20,05,47,0.60
2011,04,20,05,48,0.60
2011,04,20,05,49,0.60
2011,04,20,05,50,0.70
2011,04,20,05,51,0.70
2011,04,20,05,52,0.70
2011,04,20,05,53,0.80
2011,04,20,05,54,0.80
2011,04,20,05,55,0.80
2011,04,20,05,56,0.80
2011,04,20,05,57,0.80
2011,04,20,05,58,0.80
2011,04,20,05,59,0.80
2011,04,20,06,00,0.80
2011,04,20,06,01,0.80
2011,04,20,06,02,0.80
2011,04,20,06,03,0.80
2011,04,20,06,04,0.80
2011,04,20,06,05,0.80
2011,04,20,06,06,0.80
2011,04,20,06,07,0.80
2011,04,20,06,08,0.80
2011,04,20,06,09,0.70
2011,04,20,06,10,0.70
2011,04,20,06,11,0.70
2011,04,20,06,12,0.70
2011,04,20,06,13,0.80
2011,04,20,06,14,0.80
2011,04,20,06,15,0.80
2011,04,20,06,16,0.80
2011,04,20,06,17,0.90
2011,04,20,06,18,0.90
2011,04,20,06,19,1.00
2011,04,20,06,20,1.00
2011,04,20,06,21,1.00
2011,04,20,06,22,0.90
2011,04,20,06,23,0.90
2011,04,20,06,24,0.80
2011,04,20,06,25,0.80
2011,04,20,06,26,0.80
2011,04,20,06,27,0.80
2011,04,20,06,28,0.70
2011,04,20,06,29,0.70
2011,04,20,06,30,0.60
2011,04,20,06,31,0.60
2011,04,20,06,32,0.60
2011,04,20,06,33,0.50
2011,04,20,06,34,0.50
2011,04,20,06,35,0.50
2011,04,20,06,36,0.50
2011,04,20,06,37,0.50
2011,04,20,06,38,0.60
2011,04,20,06,39,0.60
2011,04,20,06,40,0.60
2011,04,20,06,41,0.70
2011,04,20,06,42,0.70
2011,04,20,06,43,0.80
2011,04,20,06,44,0.80
2011,04,20,06,45,0.80
2011,04,20,06,46,0.90
2011,04,20,06,47,1.00
2011,04,20,06,48,1.00
2011,04,20,06,49,1.00
2011,04,20,06,50,1.10
2011,04,20,06,51,1.10
2011,04,20,06,52,1.10
2011,04,20,06,53,1.20
2011,04,20,06,54,1.20
2011,04,20,06,55,1.20
2011,04,20,06,56,1.20
2011,04,20,06,57,1.10
2011,04,20,06,58,1.10
2011,04,20,06,59,1.10
2011,04,20,07,00,1.00
2011,04,20,07,01,1.00
2011,04,20,07,02,0.90
2011,04,20,07,03,0.90
2011,04,20,07,04,0.90
2011,04,20,07,05,0.90
2011,04,20,07,06,0.90
2011,04,20,07,07,1.00
2011,04,20,07,08,1.00
2011,04,20,07,09,1.10
2011,04,20,07,10,1.20
2011,04,20,07,11,1.20
2011,04,20,07,12,1.30
2011,04,20,07,13,1.30
2011,04,20,07,14,1.40
2011,04,20,07,15,1.40
2011,04,20,07,16,1.50
2011,04,20,07,17,1.50
2011,04,20,07,18,1.60
2011,04,20,07,19,1.60
2011,04,20,07,20,1.70
2011,04,20,07,21,1.80
2011,04,20,07,22,1.80
2011,04,20,07,23,1.90
2011,04,20,07,24,2.00
2011,04,20,07,25,2.00
2011,04,20,07,26,2.10
2011,04,20,07,27,2.10
2011,04,20,07,28,2.10
2011,04,20,07,29,2.20
2011,04,20,07,30,2.20
2011,04,20,07,31,2.20
2011,04,20,07,32,2.20
2011,04,20,07,33,2.20
2011,04,20,07,34,2.30
2011,04,20,07,35,2.30
2011,04,20,07,36,2.30
2011,04,20,07,37,2.30
2011,04,20,07,38,2.40
2011,04,20,07,39,2.40
2011,04,20,07,40,2.40
2011,04,20,07,41,2.40
2011,04,20,07,42,2.40
2011,04,20,07,43,2.50
2011,04,20,07,44,2.50
2011,04,20,07,45,2.50
2011,04,20,07,46,2.50
2011,04,20,07,47,2.60
2011,04,20,07,48,2.60
2011,04,20,07,49,2.60
2011,04,20,07,50,2.70
2011,04,20,07,51,2.70
2011,04,20,07,52,2.70
2011,04,20,07,53,2.70
2011,04,20,07,54,2.80
2011,04,20,07,55,2.80
2011,04,20,07,56,2.90
2011,04,20,07,57,2.90
2011,04,20,07,58,2.90
2011,04,20,07,59,2.90
2011,04,20,08,00,2.90
2011,04,20,08,01,3.00
2011,04,20,08,02,3.10
2011,04,20,08,03,3.10
2011,04,20,08,04,3.10
2011,04,20,08,05,3.10
2011,04,20,08,06,3.10
2011,04,20,08,07,3.10
2011,04,20,08,08,3.10
2011,04,20,08,09,3.10
2011,04,20,08,10,3.10
2011,04,20,08,11,3.20
2011,04,20,08,12,3.20
2011,04,20,08,13,3.20
2011,04,20,08,14,3.30
2011,04,20,08,15,3.30
2011,04,20,08,16,3.30
2011,04,20,08,17,3.30
2011,04,20,08,18,3.30
2011,04,20,08,19,3.40
2011,04,20,08,20,3.40
2011,04,20,08,21,3.40
2011,04,20,08,22,3.40
2011,04,20,08,23,3.40
2011,04,20,08,24,3.50
2011,04,20,08,25,3.50
2011,04,20,08,26,3.50
2011,04,20,08,27,3.60
2011,04,20,08,28,3.60
2011,04,20,08,29,3.60
2011,04,20,08,30,3.60
2011,04,20,08,31,3.70
2011,04,20,08,32,3.70
2011,04,20,08,33,3.80
2011,04,20,08,34,3.80
2011,04,20,08,35,3.80
2011,04,20,08,36,3.90
2011,04,20,08,37,3.90
2011,04,20,08,38,4.00
2011,04,20,08,39,4.00
2011,04,20,08,40,4.00
2011,04,20,08,41,4.00
2011,04,20,08,42,4.10
2011,04,20,08,43,4.10
2011,04,20,08,44,4.20
2011,04,20,08,45,4.20
2011,04,20,08,46,4.20
2011,04,20,08,47,4.20
2011,04,20,08,48,4.30
2011,04,20,08,49,4.30
2011,04,20,08,50,4.40
2011,04,20,08,51,4.40
2011,04,20,08,52,4.40
2011,04,20,08,53,4.50
2011,04,20,08,54,4.50
2011,04,20,08,55,4.50
2011,04,20,08,56,4.60
2011,04,20,08,57,4.60
2011,04,20,08,58,4.70
2011,04,20,08,59,4.70
2011,04,20,09,00,4.80
2011,04,20,09,01,4.80
2011,04,20,09,02,4.80
2011,04,20,09,03,4.80
2011,04,20,09,04,4.90
2011,04,20,09,05,4.90
2011,04,20,09,06,4.90
2011,04,20,09,07,4.90
2011,04,20,09,08,4.90
2011,04,20,09,09,5.00
2011,04,20,09,10,5.10
2011,04,20,09,11,5.10
2011,04,20,09,12,5.10
2011,04,20,09,13,5.20
2011,04,20,09,14,5.20
2011,04,20,09,15,5.20
2011,04,20,09,16,5.30
2011,04,20,09,17,5.30
2011,04,20,09,18,5.30
2011,04,20,09,19,5.40
2011,04,20,09,20,5.50
2011,04,20,09,21,5.50
2011,04,20,09,22,5.60
2011,04,20,09,23,5.60
2011,04,20,09,24,5.70
2011,04,20,09,25,5.70
2011,04,20,09,26,5.70
2011,04,20,09,27,5.70
2011,04,20,09,28,5.80
2011,04,20,09,29,5.80
2011,04,20,09,30,5.80
2011,04,20,09,31,5.90
2011,04,20,09,32,5.90
2011,04,20,09,33,5.90
2011,04,20,09,34,6.00
2011,04,20,09,35,6.00
2011,04,20,09,36,6.00
2011,04,20,09,37,6.00
2011,04,20,09,38,6.00
2011,04,20,09,39,6.00
2011,04,20,09,40,6.00
2011,04,20,09,41,6.00
2011,04,20,09,42,6.10
2011,04,20,09,43,6.10
2011,04,20,09,44,6.10
2011,04,20,09,45,6.20
2011,04,20,09,46,6.20
2011,04,20,09,47,6.20
2011,04,20,09,48,6.20
2011,04,20,09,49,6.20
2011,04,20,09,50,6.20
2011,04,20,09,51,6.20
2011,04,20,09,52,6.20
2011,04,20,09,53,6.20
2011,04,20,09,54,6.20
2011,04,20,09,55,6.20
2011,04,20,09,56,6.20
2011,04,20,09,57,6.30
2011,04,20,09,58,6.30
2011,04,20,09,59,6.30
2011,04,20,10,00,6.30
2011,04,20,10,01,6.30
2011,04,20,10,02,6.30
2011,04,20,10,03,6.30
2011,04,20,10,04,6.40
2011,04,20,10,05,6.50
2011,04,20,10,06,6.60
2011,04,20,10,07,6.60
2011,04,20,10,08,6.70
2011,04,20,10,09,6.70
2011,04,20,10,10,6.80
2011,04,20,10,11,6.80
2011,04,20,10,12,6.90
2011,04,20,10,13,6.90
2011,04,20,10,14,6.90
2011,04,20,10,15,6.90
2011,04,20,10,16,6.80
2011,04,20,10,17,6.90
2011,04,20,10,18,6.90
2011,04,20,10,19,7.00
2011,04,20,10,20,7.00
2011,04,20,10,21,7.00
2011,04,20,10,22,7.00
2011,04,20,10,23,7.00
2011,04,20,10,24,7.00
2011,04,20,10,25,7.10
2011,04,20,10,26,7.10
2011,04,20,10,27,7.10
2011,04,20,10,28,7.10
2011,04,20,10,29,7.10
2011,04,20,10,30,7.10
2011,04,20,10,31,7.10
2011,04,20,10,32,7.10
2011,04,20,10,33,7.10
2011,04,20,10,34,7.00
2011,04,20,10,35,7.00
2011,04,20,10,36,7.00
2011,04,20,10,37,6.90
2011,04,20,10,38,6.90
2011,04,20,10,39,6.90
2011,04,20,10,40,7.00
2011,04,20,10,41,7.00
2011,04,20,10,42,7.10
2011,04,20,10,43,7.20
2011,04,20,10,44,7.30
2011,04,20,10,45,7.30
2011,04,20,10,46,7.30
2011,04,20,10,47,7.30
2011,04,20,10,48,7.30
2011,04,20,10,49,7.30
2011,04,20,10,50,7.20
2011,04,20,10,51,7.20
2011,04,20,10,52,7.30
2011,04,20,10,53,7.30
2011,04,20,10,54,7.40
2011,04,20,10,55,7.50
2011,04,20,10,56,7.50
2011,04,20,10,57,7.40
2011,04,20,10,58,7.30
2011,04,20,10,59,7.30
2011,04,20,11,00,7.20
2011,04,20,11,01,7.30
2011,04,20,11,02,7.30
2011,04,20,11,03,7.30
2011,04,20,11,04,7.30
2011,04,20,11,05,7.30
2011,04,20,11,06,7.30
2011,04,20,11,07,7.20
2011,04,20,11,08,7.20
2011,04,20,11,09,7.30
2011,04,20,11,10,7.40
2011,04,20,11,11,7.40
2011,04,20,11,12,7.40
2011,04,20,11,13,7.50
2011,04,20,11,14,7.50
2011,04,20,11,15,7.50
2011,04,20,11,16,7.60
2011,04,20,11,17,7.50
2011,04,20,11,18,7.50
2011,04,20,11,19,7.50
2011,04,20,11,20,7.60
2011,04,20,11,21,7.60
2011,04,20,11,22,7.60
2011,04,20,11,23,7.60
2011,04,20,11,24,7.60
2011,04,20,11,25,7.60
2011,04,20,11,26,7.70
2011,04,20,11,27,7.80
2011,04,20,11,28,7.80
2011,04,20,11,29,7.80
2011,04,20,11,30,7.80
2011,04,20,11,31,7.80
2011,04,20,11,32,7.80
2011,04,20,11,33,7.80
2011,04,20,11,34,7.80
2011,04,20,11,35,7.80
2011,04,20,11,36,7.80
2011,04,20,11,37,7.80
2011,04,20,11,38,7.90
2011,04,20,11,39,7.90
2011,04,20,11,40,7.90
2011,04,20,11,41,7.80
2011,04,20,11,42,7.80
2011,04,20,11,43,7.80
2011,04,20,11,44,7.90
2011,04,20,11,45,7.90
2011,04,20,11,46,8.00
2011,04,20,11,47,8.10
2011,04,20,11,48,8.20
2011,04,20,11,49,8.00
2011,04,20,11,50,7.90
2011,04,20,11,51,7.90
2011,04,20,11,52,7.90
2011,04,20,11,53,8.00
2011,04,20,11,54,8.00
2011,04,20,11,55,7.90
2011,04,20,11,56,7.90
2011,04,20,11,57,8.00
2011,04,20,11,58,8.00
2011,04,20,11,59,8.10
2011,04,20,12,00,8.10
2011,04,20,12,01,8.20
2011,04,20,12,02,8.30
2011,04,20,12,03,8.40
2011,04,20,12,04,8.60
2011,04,20,12,05,8.50
2011,04,20,12,06,8.40
2011,04,20,12,07,8.40
2011,04,20,12,08,8.40
2011,04,20,12,09,8.40
2011,04,20,12,10,8.40
2011,04,20,12,11,8.30
2011,04,20,12,12,8.20
2011,04,20,12,13,8.20
2011,04,20,12,14,8.10
2011,04,20,12,15,8.10
2011,04,20,12,16,8.10
2011,04,20,12,17,8.10
2011,04,20,12,18,8.10
2011,04,20,12,19,8.20
2011,04,20,12,20,8.20
2011,04,20,12,21,8.20
2011,04,20,12,22,8.20
2011,04,20,12,23,8.30
2011,04,20,12,24,8.50
2011,04,20,12,25,8.60
2011,04,20,12,26,8.80
2011,04,20,12,27,8.90
2011,04,20,12,28,9.00
2011,04,20,12,29,9.00
2011,04,20,12,30,8.90
2011,04,20,12,31,8.80
2011,04,20,12,32,8.80
2011,04,20,12,33,8.70
2011,04,20,12,34,8.70
2011,04,20,12,35,8.70
2011,04,20,12,36,8.60
2011,04,20,12,37,8.40
2011,04,20,12,38,8.30
2011,04,20,12,39,8.20
2011,04,20,12,40,8.20
2011,04,20,12,41,8.20
2011,04,20,12,42,8.30
2011,04,20,12,43,8.30
2011,04,20,12,44,8.30
2011,04,20,12,45,8.30
2011,04,20,12,46,8.30
2011,04,20,12,47,8.30
2011,04,20,12,48,8.20
2011,04,20,12,49,8.20
2011,04,20,12,50,8.20
2011,04,20,12,51,8.30
2011,04,20,12,52,8.40
2011,04,20,12,53,8.60
2011,04,20,12,54,8.70
2011,04,20,12,55,8.90
2011,04,20,12,56,9.00
2011,04,20,12,57,9.00
2011,04,20,12,58,9.00
2011,04,20,12,59,8.90
2011,04,20,13,00,9.00
2011,04,20,13,01,9.00
2011,04,20,13,02,9.10
2011,04,20,13,03,9.20
2011,04,20,13,04,9.20
2011,04,20,13,05,9.10
2011,04,20,13,06,9.10
2011,04,20,13,07,9.10
2011,04,20,13,08,9.10
2011,04,20,13,09,9.00
2011,04,20,13,10,9.00
2011,04,20,13,11,9.00
2011,04,20,13,12,9.00
2011,04,20,13,13,8.90
2011,04,20,13,14,8.90
2011,04,20,13,15,8.90
2011,04,20,13,16,9.10
2011,04,20,13,17,9.20
2011,04,20,13,18,9.20
2011,04,20,13,19,9.20
2011,04,20,13,20,9.10
2011,04,20,13,21,8.90
2011,04,20,13,22,8.80
2011,04,20,13,23,8.60
2011,04,20,13,24,8.60
2011,04,20,13,25,8.50
2011,04,20,13,26,8.50
2011,04,20,13,27,8.70
2011,04,20,13,28,8.80
2011,04,20,13,29,8.80
2011,04,20,13,30,8.80
2011,04,20,13,31,8.90
2011,04,20,13,32,9.00
2011,04,20,13,33,9.10
2011,04,20,13,34,9.00
2011,04,20,13,35,9.00
2011,04,20,13,36,9.00
2011,04,20,13,37,9.00
2011,04,20,13,38,8.80
2011,04,20,13,39,8.70
2011,04,20,13,40,8.60
2011,04,20,13,41,8.60
2011,04,20,13,42,8.50
2011,04,20,13,43,8.60
2011,04,20,13,44,8.70
2011,04,20,13,45,8.70
2011,04,20,13,46,8.70
2011,04,20,13,47,8.70
2011,04,20,13,48,8.70
2011,04,20,13,49,8.80
2011,04,20,13,50,8.70
2011,04,20,13,51,8.70
2011,04,20,13,52,8.70
2011,04,20,13,53,8.90
2011,04,20,13,54,9.00
2011,04,20,13,55,9.10
2011,04,20,13,56,9.00
2011,04,20,13,57,8.90
2011,04,20,13,58,8.90
2011,04,20,13,59,8.90
2011,04,20,14,00,8.90
2011,04,20,14,01,8.90
2011,04,20,14,02,8.90
2011,04,20,14,03,8.80
2011,04,20,14,04,8.80
2011,04,20,14,05,8.80
2011,04,20,14,06,8.80
2011,04,20,14,07,8.80
2011,04,20,14,08,8.70
2011,04,20,14,09,8.60
2011,04,20,14,10,8.60
2011,04,20,14,11,8.60
2011,04,20,14,12,8.60
2011,04,20,14,13,8.70
2011,04,20,14,14,8.70
2011,04,20,14,15,8.70
2011,04,20,14,16,8.90
2011,04,20,14,17,9.00
2011,04,20,14,18,9.00
2011,04,20,14,19,9.20
2011,04,20,14,20,9.20
2011,04,20,14,21,9.20
2011,04,20,14,22,9.30
2011,04,20,14,23,9.30
2011,04,20,14,24,9.20
2011,04,20,14,25,9.20
2011,04,20,14,26,9.20
2011,04,20,14,27,9.30
2011,04,20,14,28,9.30
2011,04,20,14,29,9.30
2011,04,20,14,30,9.30
2011,04,20,14,31,9.30
2011,04,20,14,32,9.20
2011,04,20,14,33,9.20
2011,04,20,14,34,9.20
2011,04,20,14,35,9.20
2011,04,20,14,36,9.20
2011,04,20,14,37,9.10
2011,04,20,14,38,9.20
2011,04,20,14,39,9.30
2011,04,20,14,40,9.50
2011,04,20,14,41,9.60
2011,04,20,14,42,9.80
2011,04,20,14,43,9.90
2011,04,20,14,44,10.00
2011,04,20,14,45,10.10
2011,04,20,14,46,10.10
2011,04,20,14,47,10.20
2011,04,20,14,48,10.20
2011,04,20,14,49,10.20
2011,04,20,14,50,10.30
2011,04,20,14,51,10.40
2011,04,20,14,52,10.60
2011,04,20,14,53,10.80
2011,04,20,14,54,10.90
2011,04,20,14,55,11.00
2011,04,20,14,56,11.10
2011,04,20,14,57,11.30
2011,04,20,14,58,11.30
2011,04,20,14,59,11.30
2011,04,20,15,00,11.40
2011,04,20,15,01,11.40
2011,04,20,15,02,11.40
2011,04,20,15,03,11.40
2011,04,20,15,04,11.40
2011,04,20,15,05,11.40
2011,04,20,15,06,11.20
2011,04,20,15,07,11.10
2011,04,20,15,08,11.10
2011,04,20,15,09,11.10
2011,04,20,15,10,11.00
2011,04,20,15,11,10.90
2011,04,20,15,12,10.90
2011,04,20,15,13,10.90
2011,04,20,15,14,10.80
2011,04,20,15,15,10.80
2011,04,20,15,16,10.80
2011,04,20,15,17,10.90
2011,04,20,15,18,10.90
2011,04,20,15,19,10.90
2011,04,20,15,20,10.90
2011,04,20,15,21,10.90
2011,04,20,15,22,10.90
2011,04,20,15,23,10.80
2011,04,20,15,24,10.70
2011,04,20,15,25,10.60
2011,04,20,15,26,10.60
2011,04,20,15,27,10.60
2011,04,20,15,28,10.50
2011,04,20,15,29,10.40
2011,04,20,15,30,10.40
2011,04,20,15,31,10.50
2011,04,20,15,32,10.60
2011,04,20,15,33,10.60
2011,04,20,15,34,10.70
2011,04,20,15,35,10.90
2011,04,20,15,36,10.90
2011,04,20,15,37,11.00
2011,04,20,15,38,10.90
2011,04,20,15,39,10.90
2011,04,20,15,40,10.90
2011,04,20,15,41,10.90
2011,04,20,15,42,11.00
2011,04,20,15,43,11.10
2011,04,20,15,44,11.10
2011,04,20,15,45,11.10
2011,04,20,15,46,11.00
2011,04,20,15,47,11.10
2011,04,20,15,48,11.10
2011,04,20,15,49,11.10
2011,04,20,15,50,11.00
2011,04,20,15,51,11.10
2011,04,20,15,52,11.10
2011,04,20,15,53,11.10
2011,04,20,15,54,11.30
2011,04,20,15,55,11.30
2011,04,20,15,56,11.20
2011,04,20,15,57,11.20
2011,04,20,15,58,11.10
2011,04,20,15,59,11.00
2011,04,20,16,00,11.00
2011,04,20,16,01,11.10
2011,04,20,16,02,11.10
2011,04,20,16,03,11.10
2011,04,20,16,04,11.20
2011,04,20,16,05,11.30
2011,04,20,16,06,11.30
2011,04,20,16,07,11.30
2011,04,20,16,08,11.30
2011,04,20,16,09,11.30
2011,04,20,16,10,11.40
2011,04,20,16,11,11.30
2011,04,20,16,12,11.20
2011,04,20,16,13,11.20
2011,04,20,16,14,11.10
2011,04,20,16,15,11.10
2011,04,20,16,16,11.10
2011,04,20,16,17,11.10
2011,04,20,16,18,11.00
2011,04,20,16,19,10.90
2011,04,20,16,20,10.80
2011,04,20,16,21,10.80
2011,04,20,16,22,10.80
2011,04,20,16,23,10.80
2011,04,20,16,24,10.80
2011,04,20,16,25,10.80
2011,04,20,16,26,10.90
2011,04,20,16,27,10.90
2011,04,20,16,28,10.80
2011,04,20,16,29,10.80
2011,04,20,16,30,10.70
2011,04,20,16,31,10.70
2011,04,20,16,32,10.70
2011,04,20,16,33,10.80
2011,04,20,16,34,10.80
2011,04,20,16,35,10.70
2011,04,20,16,36,10.70
2011,04,20,16,37,10.70
2011,04,20,16,38,10.70
2011,04,20,16,39,10.70
2011,04,20,16,40,10.70
2011,04,20,16,41,10.80
2011,04,20,16,42,10.90
2011,04,20,16,43,11.00
2011,04,20,16,44,11.10
2011,04,20,16,45,11.30
2011,04,20,16,46,11.40
2011,04,20,16,47,11.40
2011,04,20,16,48,11.50
2011,04,20,16,49,11.60
2011,04,20,16,50,11.60
2011,04,20,16,51,11.70
2011,04,20,16,52,11.80
2011,04,20,16,53,11.80
2011,04,20,16,54,11.80
2011,04,20,16,55,11.80
2011,04,20,16,56,11.80
2011,04,20,16,57,11.80
2011,04,20,16,58,11.80
2011,04,20,16,59,11.70
2011,04,20,17,00,11.60
2011,04,20,17,01,11.60
2011,04,20,17,02,11.40
2011,04,20,17,03,11.40
2011,04,20,17,04,11.20
2011,04,20,17,05,11.20
2011,04,20,17,06,11.10
2011,04,20,17,07,11.10
2011,04,20,17,08,11.00
2011,04,20,17,09,10.90
2011,04,20,17,10,10.90
2011,04,20,17,11,10.80
2011,04,20,17,12,10.60
2011,04,20,17,13,10.50
2011,04,20,17,14,10.40
2011,04,20,17,15,10.30
2011,04,20,17,16,10.30
2011,04,20,17,17,10.30
2011,04,20,17,18,10.30
2011,04,20,17,19,10.30
2011,04,20,17,20,10.40
2011,04,20,17,21,10.40
2011,04,20,17,22,10.40
2011,04,20,17,23,10.40
2011,04,20,17,24,10.40
2011,04,20,17,25,10.40
2011,04,20,17,26,10.30
2011,04,20,17,27,10.30
2011,04,20,17,28,10.30
2011,04,20,17,29,10.40
2011,04,20,17,30,10.30
2011,04,20,17,31,10.20
2011,04,20,17,32,10.10
2011,04,20,17,33,9.90
2011,04,20,17,34,9.80
2011,04,20,17,35,9.70
2011,04,20,17,36,9.60
2011,04,20,17,37,9.50
2011,04,20,17,38,9.40
2011,04,20,17,39,9.30
2011,04,20,17,40,9.10
2011,04,20,17,41,9.00
2011,04,20,17,42,9.00
2011,04,20,17,43,8.90
2011,04,20,17,44,8.80
2011,04,20,17,45,8.70
2011,04,20,17,46,8.70
2011,04,20,17,47,8.70
2011,04,20,17,48,8.70
2011,04,20,17,49,8.70
2011,04,20,17,50,8.70
2011,04,20,17,51,8.70
2011,04,20,17,52,8.70
2011,04,20,17,53,8.70
2011,04,20,17,54,8.70
2011,04,20,17,55,8.60
2011,04,20,17,56,8.60
2011,04,20,17,57,8.60
2011,04,20,17,58,8.60
2011,04,20,17,59,8.60